フルス彗星

P/2019 Y2 ( Fuls )

English version
Home page
Updated on May 24, 2020

---------------------------------------------------------------------

・ プロフィール

発見日 2019年12月21日
発見光度 18.8等
発見者 D. Carson Fuls (Mount Lemmon Survey)

・ 写真集

・ 軌道要素

Epoch 2020 Feb. 1.0 TT = JDT 2458880.5
T 2020 Jan. 31.80541 TT                                 Rudenko
q   2.1248362            (2000.0)            P               Q
n   0.15349957     Peri.   92.33166     -0.98930021     -0.11910047
a   3.4546014      Node    80.83661     +0.07468248     -0.90956479
e   0.3849258      Incl.    4.89625     +0.12533004     -0.39812935
P   6.42
From 584 observations 2019 Dec. 21-2020 May 16, mean residual 0".6.

・ 星図

・ 光度変化

        m1 = 12.8 + 5 logΔ + 10.0 log r

---------------------------------------------------------------------

軌道要素はM.P.E.C. 2020-K117に掲載されたものです。
星図はステラナビゲータ Ver.10 (アストロアーツ) で作成したものです。
光度グラフはComet for Windowsで作成したものです。

---------------------------------------------------------------------

Copyright(C) Seiichi Yoshida (comet@aerith.net). All rights reserved.